Weather History for KAFK - July, 2013

Change the Weather History Date:

Saturday, July 13, 2013

  Actual Average (KSDA) Record (KSDA)
Temperature  
Mean Temperature 76 °F -  
Max Temperature 85 °F 89 °F 107 °F (1954)
Min Temperature 69 °F 68 °F 49 °F (1975)
Cooling Degree Days 12    
Growing Degree Days 26 (Base 50)    
Moisture  
Dew Point 66 °F    
Average Humidity 67    
Maximum Humidity 80    
Minimum Humidity 54    
Precipitation  
Precipitation 0.05 in - - ()
Sea Level Pressure  
Sea Level Pressure 29.99 in    
Wind  
Wind Speed 12 mph (SSE)    
Max Wind Speed 22 mph    
Max Gust Speed 28 mph    
Visibility 10 miles    
Events Rain , Thunderstorm    
Averages and records for this station are not official NWS values.
T = Trace of Precipitation, MM = Missing Value Source: NWS Daily Summary

Daily Weather History Graph

Daily Weather History Graph

Search for Another Location

Airport or City:

Trip Planner

Search our weather history database for the weather conditions in past years. The results will help you decide how hot, cold, wet, or windy it might be!

Date:

Astronomy

Jul. 13, 2013 Rise Set
Actual Time 6:04 AM CDT 8:54 PM CDT
Civil Twilight 5:31 AM CDT 9:26 PM CDT
Nautical Twilight 4:50 AM CDT 10:07 PM CDT
Astronomical Twilight 4:03 AM CDT 10:53 PM CDT
Moon 11:23 AM CDT (7/13) 11:33 PM CDT (7/13)
Length of Visible Light 15h 54m
Length of Day
14h 49m
Waxing Crescent, 26% of the Moon is Illuminated
Jul 13
Waxing Crescent
Jul 15
First Quarter
Jul 22
Full
Jul 29
Last Quarter
Aug 6
New

Hourly Weather History & Observations

Time (CDT) Temp. Heat Index Dew Point Humidity Pressure Visibility Wind Dir Wind Speed Gust Speed Precip Events Conditions
12:15 AM 76.8 °F - 60.8 °F 58% 29.97 in 10.0 mi SSE 11.5 mph - N/A   Clear
12:35 AM 76.8 °F - 60.1 °F 56% 29.97 in 10.0 mi SSE 10.4 mph - N/A   Clear
12:55 AM 76.6 °F - 59.9 °F 56% 29.98 in 10.0 mi SSE 10.4 mph - N/A   Clear
1:15 AM 76.3 °F - 59.7 °F 56% 29.98 in 10.0 mi SSE 10.4 mph - N/A   Scattered Clouds
1:35 AM 76.3 °F - 59.7 °F 56% 29.99 in 10.0 mi SSE 9.2 mph - N/A   Scattered Clouds
1:55 AM 76.1 °F - 59.9 °F 57% 29.99 in 10.0 mi SSE 9.2 mph - N/A   Clear
2:15 AM 76.1 °F - 59.9 °F 57% 29.99 in 10.0 mi SSE 12.7 mph - N/A   Scattered Clouds
2:35 AM 76.1 °F - 59.5 °F 56% 29.99 in 10.0 mi SSE 9.2 mph 16.1 mph N/A   Scattered Clouds
2:55 AM 76.1 °F - 59.2 °F 56% 29.99 in 10.0 mi SSE 13.8 mph 18.4 mph N/A   Mostly Cloudy
3:15 AM 76.5 °F - 58.8 °F 54% 29.99 in 10.0 mi SSE 10.4 mph - N/A   Mostly Cloudy
3:35 AM 76.3 °F - 59.0 °F 55% 29.99 in 10.0 mi SSE 12.7 mph - N/A   Mostly Cloudy
3:55 AM 76.1 °F - 58.5 °F 54% 29.99 in 10.0 mi South 13.8 mph - N/A   Scattered Clouds
4:15 AM 75.7 °F - 58.5 °F 55% 29.99 in 10.0 mi SSE 12.7 mph - N/A   Scattered Clouds
4:35 AM 75.4 °F - 58.5 °F 56% 30.00 in 10.0 mi SE 8.1 mph - N/A   Mostly Cloudy
4:55 AM 74.8 °F - 58.8 °F 57% 30.01 in 10.0 mi SSE 6.9 mph - N/A Thunderstorm Thunderstorm
5:15 AM 74.5 °F - 58.8 °F 58% 30.00 in 10.0 mi SSE 10.4 mph - N/A   Overcast
5:35 AM 74.3 °F - 58.5 °F 58% 30.00 in 10.0 mi South 10.4 mph - N/A   Mostly Cloudy
5:55 AM 72.7 °F - 59.9 °F 64% 29.98 in 7.0 mi South 21.9 mph - 0.02 in Rain Heavy Rain
6:15 AM 69.3 °F - 61.9 °F 77% 29.99 in 7.0 mi SSE 10.4 mph 19.6 mph 0.03 in Rain Light Rain
6:35 AM 69.4 °F - 61.7 °F 76% 29.99 in 10.0 mi South 13.8 mph - 0.03 in   Mostly Cloudy
6:55 AM 69.3 °F - 61.9 °F 77% 29.99 in 10.0 mi South 12.7 mph - 0.03 in   Mostly Cloudy
7:15 AM 69.3 °F - 61.9 °F 77% 29.99 in 10.0 mi South 11.5 mph - N/A   Mostly Cloudy
7:35 AM 69.3 °F - 62.6 °F 79% 29.99 in 10.0 mi SSE 8.1 mph - N/A   Mostly Cloudy
7:55 AM 69.4 °F - 63.0 °F 80% 30.00 in 10.0 mi SSE 6.9 mph - N/A   Mostly Cloudy
8:15 AM 69.8 °F - 63.3 °F 80% 30.00 in 10.0 mi South 8.1 mph - N/A   Mostly Cloudy
8:35 AM 70.5 °F - 63.9 °F 79% 30.01 in 10.0 mi SSE 11.5 mph - N/A   Mostly Cloudy
8:55 AM 71.6 °F - 64.6 °F 78% 30.00 in 10.0 mi SSE 10.4 mph - N/A   Scattered Clouds
9:15 AM 71.8 °F - 64.0 °F 77% 30.01 in 10.0 mi South 10.4 mph - N/A   Clear
9:35 AM 73.4 °F - 64.0 °F 72% 30.01 in 10.0 mi SSE 9.2 mph - N/A   Clear
9:55 AM 75.0 °F - 64.6 °F 70% 30.01 in 10.0 mi SSE 9.2 mph - N/A   Scattered Clouds
10:15 AM 75.0 °F - 64.0 °F 69% 30.01 in 10.0 mi SSE 10.4 mph - N/A   Mostly Cloudy
10:35 AM 74.5 °F - 64.6 °F 71% 30.01 in 10.0 mi SSE 9.2 mph - N/A   Mostly Cloudy
10:55 AM 75.4 °F - 65.3 °F 71% 30.01 in 10.0 mi South 9.2 mph - N/A   Mostly Cloudy
11:15 AM 77.5 °F - 66.2 °F 68% 30.01 in 10.0 mi SSE 9.2 mph - N/A   Mostly Cloudy
11:35 AM 78.1 °F - 66.6 °F 68% 30.01 in 10.0 mi South 10.4 mph - N/A   Mostly Cloudy
11:55 AM 78.3 °F - 66.9 °F 68% 30.00 in 10.0 mi South 11.5 mph - N/A   Scattered Clouds
12:15 PM 78.4 °F - 66.9 °F 68% 30.00 in 10.0 mi SSE 11.5 mph 18.4 mph N/A   Mostly Cloudy
12:35 PM 79.3 °F - 66.6 °F 65% 30.00 in 10.0 mi SSE 16.1 mph 19.6 mph N/A   Mostly Cloudy
12:55 PM 78.8 °F - 66.7 °F 66% 30.00 in 10.0 mi SSE 17.3 mph 20.7 mph N/A   Scattered Clouds
1:15 PM 79.0 °F - 67.8 °F 69% 30.00 in 10.0 mi South 12.7 mph - N/A   Clear
1:35 PM 80.4 °F 83.1 °F 68.2 °F 66% 29.99 in 10.0 mi SSE 13.8 mph - N/A   Clear
1:55 PM 81.5 °F 84.6 °F 68.7 °F 65% 29.99 in 10.0 mi South 16.1 mph - N/A   Clear
2:15 PM 83.5 °F 87.7 °F 70.0 °F 64% 29.99 in 10.0 mi SE 12.7 mph - N/A   Clear
2:35 PM 82.0 °F 85.7 °F 69.8 °F 66% 29.98 in 10.0 mi South 11.5 mph - N/A   Clear
2:55 PM 82.0 °F 86.3 °F 71.1 °F 69% 29.97 in 10.0 mi SSE 11.5 mph - N/A   Clear
3:15 PM 83.5 °F 88.5 °F 71.4 °F 67% 29.97 in 10.0 mi SSE 12.7 mph - N/A   Clear
3:35 PM 84.7 °F 89.7 °F 71.1 °F 63% 29.97 in 10.0 mi SSE 13.8 mph - N/A   Clear
3:55 PM 84.6 °F 89.7 °F 71.2 °F 64% 29.97 in 10.0 mi SSE 15.0 mph - N/A   Clear
4:15 PM 84.7 °F 89.7 °F 71.1 °F 63% 29.97 in 10.0 mi South 16.1 mph - N/A   Clear
4:35 PM 84.2 °F 89.3 °F 71.1 °F 65% 29.97 in 10.0 mi SSE 13.8 mph - N/A   Clear
4:55 PM 84.7 °F 90.4 °F 71.8 °F 65% 29.97 in 10.0 mi South 15.0 mph 18.4 mph N/A   Clear
5:15 PM 83.8 °F 88.9 °F 71.2 °F 66% 29.96 in 10.0 mi SSE 15.0 mph - N/A   Clear
5:35 PM 84.0 °F 89.0 °F 71.1 °F 65% 29.96 in 10.0 mi South 12.7 mph - N/A   Clear
5:55 PM 84.7 °F 91.0 °F 72.7 °F 67% 29.96 in 10.0 mi SE 10.4 mph - N/A   Clear
6:15 PM 84.7 °F 90.7 °F 72.1 °F 66% 29.96 in 10.0 mi SE 9.2 mph - N/A   Clear
6:35 PM 84.6 °F 90.3 °F 72.0 °F 66% 29.96 in 10.0 mi SE 9.2 mph - N/A   Clear
6:55 PM 83.8 °F 88.9 °F 71.6 °F 66% 29.95 in 10.0 mi SSE 11.5 mph - N/A   Clear
7:15 PM 82.9 °F 88.0 °F 71.8 °F 69% 29.95 in 10.0 mi SSE 11.5 mph - N/A   Clear
7:35 PM 82.4 °F 87.2 °F 71.6 °F 70% 29.96 in 10.0 mi SE 9.2 mph - N/A   Clear
7:55 PM 82.0 °F 86.7 °F 72.0 °F 71% 29.96 in 10.0 mi SE 11.5 mph - N/A   Clear
8:15 PM 81.5 °F 85.9 °F 71.8 °F 72% 29.96 in 10.0 mi SE 12.7 mph - N/A   Scattered Clouds
8:35 PM 80.6 °F 84.4 °F 71.1 °F 73% 29.96 in 10.0 mi SE 11.5 mph 17.3 mph N/A   Scattered Clouds
8:55 PM 80.1 °F 83.2 °F 70.0 °F 71% 29.97 in 10.0 mi SE 13.8 mph - N/A   Clear
9:15 PM 79.3 °F - 69.1 °F 71% 29.97 in 10.0 mi SE 13.8 mph - N/A   Clear
9:35 PM 78.8 °F - 68.9 °F 72% 29.97 in 10.0 mi SE 12.7 mph - N/A   Clear
9:55 PM 78.3 °F - 68.0 °F 71% 29.99 in 10.0 mi SE 11.5 mph - N/A   Clear
10:15 PM 78.3 °F - 67.3 °F 69% 29.99 in 10.0 mi SE 12.7 mph 19.6 mph N/A   Scattered Clouds
10:35 PM 77.7 °F - 66.9 °F 69% 30.01 in 10.0 mi ESE 8.1 mph - N/A   Scattered Clouds
10:55 PM 77.4 °F - 66.2 °F 68% 30.00 in 10.0 mi SE 18.4 mph 24.2 mph N/A   Scattered Clouds
11:15 PM 76.3 °F - 66.4 °F 71% 29.99 in 10.0 mi SSE 13.8 mph 26.5 mph N/A   Clear
11:35 PM 74.3 °F - 66.7 °F 77% 29.98 in 10.0 mi SSE 18.4 mph 27.6 mph N/A   Clear
11:55 PM 73.4 °F - 66.6 °F 79% 29.99 in 10.0 mi SE 12.7 mph 20.7 mph N/A   Clear